Regional Weather Roundup
Issued by NWS

Home | Current Version | Previous Version | Graphics & Text | Print | Product List | Glossary Off
Versions: 1 2 3 4 5 6 7 8 9 10 11 12 13 14 15 16 17 18 19 20 21 22 23 24 25 26 27 28 29 30 31 32 33 34 35 36 37 38 39 40 41 42 43 44 45 46 47 48 49 50

000
ASUS43 KLOT 122103
RWRIL

ILLINOIS REGIONAL WEATHER ROUNDUP
NATIONAL WEATHER SERVICE CHICAGO/ROMEOVILLE IL
300 PM CST FRI FEB 12 2016

NOTE: "FAIR" INDICATES FEW OR NO CLOUDS BELOW 12,000 FEET WITH NO
SIGNIFICANT WEATHER AND/OR OBSTRUCTIONS TO VISIBILITY.

* THESE STATIONS ARE NOT UNDER NWS QUALITY CONTROL. THEY ALSO MAY NOT
  REPORT WEATHER SUCH AS PRECIPITATION OR FOG.

ILZ001-002-007-009-015-016-024-122200-
NORTHWEST ILLINOIS

CITY           SKY/WX    TMP DP  RH WIND       PRES   REMARKS
MOLINE         SUNNY     23   1  38 NW28G39   30.31R WCI   6
STERLING*      SUNNY     25   7  46 W23G31    30.22R WCI  10
$$

ILZ003-004-008-010-011-017-018-122200-
NORTH CENTRAL ILLINOIS

CITY           SKY/WX    TMP DP  RH WIND       PRES   REMARKS
ROCKFORD       PTSUNNY   22   2  42 NW23G35   30.23R WCI   6
FREEPORT*      MOSUNNY   20   4  49 NW23G31   30.24S WCI   3
DE KALB*       MOSUNNY   21   6  52 NW22G33   30.19R WCI   5
$$

ILZ005-006-012>014-019>023-122200-
NORTHEAST ILLINOIS

CITY           SKY/WX    TMP DP  RH WIND       PRES   REMARKS
CHICAGO-OHARE  PTSUNNY   22   3  44 NW25G33   30.16R WCI   5
CHICAGO-MIDWAY PTSUNNY   24   3  40 NW25G31   30.17R WCI   8
AURORA         PTSUNNY   23   8  52 NW21G30   30.19R WCI   8
LANSING*       MOSUNNY   24   4  42 NW21G29   30.16R WCI   9
WAUKEGAN       CLOUDY    19   0  43 NW13G24   30.15R WCI   6
DUPAGE AIRPORT PTSUNNY   22   4  46 NW22G33   30.17R WCI   6
WHEELING       PTSUNNY   20   2  45 NW17G28   30.18R WCI   5
NORTHERLY ISL    N/A     22   1  40 NW20        N/A  WCI   7
$$

LMZ740>746-122200-
SOUTHERN LAKE MICHIGAN

STATION/POSITION SKY/WX   TEMP    WIND        PRES    VSBY  WAVE
                          AIR SEA DIR/SP/G                  HT/PER
                          (F)     (DEG/KT/KT) (MB)    (MI)  (FT/S)
HARRISON CRIB              21     310/ 24/ 28   N/A
BURNHAM HARBOR             22     290/ 11/ 22   N/A
CALUMET HARBOR             22     300/ 15/ 23 1020.3R
BURNS HARBOR               22     320/ 18     1020.7S
MICHIGAN CITY              21     270/ 21/ 26   N/A
$$

ILZ025>027-034>036-040-047-049-050-058-095>099-122200-
WEST-CENTRAL ILLINOIS

CITY           SKY/WX    TMP DP  RH WIND       PRES   REMARKS
QUINCY         SUNNY     25  13  60 NW18      30.35S WCI  11
MACOMB*        SUNNY     27  13  56 NW29      30.34R WCI  11
$$

ILZ028>032-037-038-041>044-048-051>054-059>061-122200-
CENTRAL ILLINOIS

CITY           SKY/WX    TMP DP  RH WIND       PRES   REMARKS
BLOOMINGTON    MOSUNNY   27  12  53 NW18G31   30.22S WCI  14
DECATUR        MOSUNNY   26  13  57 NW20G29   30.25R WCI  12
PEORIA         SUNNY     28   5  37 NW14G26   30.27R WCI  17
LINCOLN*       MOSUNNY   29  14  54 NW12G18   30.26R WCI  19
SPRINGFIELD    PTSUNNY   27  15  61 NW14      30.29S WCI  16
TAYLORVILLE    NOT AVBL
$$

ILZ033-039-045-046-055>057-062-063-122200-
EAST-CENTRAL ILLINOIS

CITY           SKY/WX    TMP DP  RH WIND       PRES   REMARKS
CHAMPAIGN      MOSUNNY   27  15  61 NW23      30.21R WCI  12
MATTOON        CLOUDY    28  18  66 NW24      30.22R WCI  14
$$

ILZ079-100>102-122200-
SOUTHWEST ILLINOIS

CITY           SKY/WX    TMP DP  RH WIND       PRES   REMARKS
ALTON          CLOUDY    27  19  74 NW14G21   30.32S WCI  15
BELLEVILLE     MOSUNNY   32  20  62 NW20G29   30.30R WCI  20
CAHOKIA*       CLOUDY    32  20  61 NW18G25   30.33R WCI  20
SPARTA*        CLOUDY    33  22  64 NW14G28   30.30R WCI  23
$$

ILZ064>066-069>071-074>076-080>082-084>086-088>090-092>094-122200-
SOUTH-CENTRAL ILLINOIS

CITY           SKY/WX    TMP DP  RH WIND       PRES   REMARKS
CARBONDALE     PTSUNNY   35  23  61 NW16G22   30.28S WCI  25
MARION         CLOUDY    36  25  64 NW15      30.28S WCI  26
MT. VERNON     CLOUDY    30  19  64 W13G18    30.28R WCI  20
CENTRALIA*     CLOUDY    30  23  75 NW21G26   30.28R WCI  17
SALEM*         CLOUDY    30  22  72 NW14G22   30.28R WCI  20
$$

ILZ067-068-072-073-078-083-087-091-122200-
SOUTHEAST ILLINOIS

CITY           SKY/WX    TMP DP  RH WIND       PRES   REMARKS
LAWRENCEVILLE  CLOUDY    30  21  69 NW20G30   30.24R WCI  17
HARRISBURG*    CLOUDY    32  26  76 NW15      30.28R WCI  22
$$

ABBREVIATIONS USED IN REMARKS
   TC - TEMPERATURE IN CELSIUS
  WCI - WIND CHILL INDEX
   HX - HEAT INDEX
  VSB - VISIBILITY
$$




USA.gov is the U.S. government's official web portal to all federal, state and local government web resources and services.